ZHONGXING-4A

Last updated on Sun Nov 16 2025 00:03:45 GMT+0000 (Coordinated Universal Time)

1 60606U 24151A 25319.54690906 -.00000356 00000+0 00000+0 0 9993 2 60606 1.8676 273.2091 0001108 8.2940 88.4515 1.00267516 4615
UTC large
Height (km)
Speed (km/s)
/
Latitude / Longitude
Inclination (degrees)
Orbital Period (minutes)
Azimuth
Elevation
Range (km)
Doppler Factor

Next 0 passes for location: London (51.5072 / 0.1276)

Sorry there are no passes over London.